FW6550 Weather Reports


time (UTC)temp
F
wind
direction
speed
knots
gust
knots
rain 1hr
in
rain 24hr
in
rain mn
in
humidity
%
barometer
mb
20260906174543 98 0 0.9 6.1 0.00 0.00 0.00 57 1012.1
20260906174020 98 291 0.9 7.8 0.00 0.00 0.00 56 1012.2
20260906173519 97 300 0.9 7.8 0.00 0.00 0.00 58 1012.2
20260906173038 97 156 0.9 7.8 0.00 0.00 0.00 58 1012.4
20260906172519 97 360 0.9 4.3 0.00 0.00 0.00 56 1012.5
20260906172017 97 135 0.9 2.6 0.00 0.00 0.00 58 1012.7
20260906171540 98 0 0.9 3.5 0.00 0.00 0.00 56 1012.6
20260906171019 98 0 0.0 3.5 0.00 0.00 0.00 55 1012.6
20260906170520 98 48 0.9 3.5 0.00 0.00 0.00 54 1012.6
20260906170041 98 166 0.9 3.5 0.00 0.00 0.00 57 1012.7
20260906165521 98 181 0.0 3.5 0.00 0.00 0.00 61 1012.8
20260906165023 97 196 0.9 3.5 0.00 0.00 0.00 63 1012.8
20260906164542 96 0 0.0 3.5 0.00 0.00 0.00 58 1012.8
20260906164020 97 32 0.9 3.5 0.00 0.00 0.00 56 1012.9
20260906163519 97 348 0.0 5.2 0.00 0.00 0.00 56 1013.0
20260906163041 97 173 1.7 5.2 0.00 0.00 0.00 59 1013.1
20260906162523 97 192 1.7 3.5 0.00 0.00 0.00 62 1013.1
20260906162019 96 0 0.9 3.5 0.00 0.00 0.00 63 1013.2
20260906161543 96 0 0.0 2.6 0.00 0.00 0.00 60 1013.3
20260906161021 96 0 0.0 2.6 0.00 0.00 0.00 63 1013.3
20260906160518 95 68 0.0 1.7 0.00 0.00 0.00 61 1013.1
20260906160043 94 0 0.0 1.7 0.00 0.00 0.00 66 1013.3
20260906155518 94 338 0.0 2.6 0.00 0.00 0.00 66 1013.4
20260906155019 94 0 0.0 4.3 0.00 0.00 0.00 64 1013.3
20260906154541 93 180 0.9 4.3 0.00 0.00 0.00 67 1013.2
20260906154020 93 0 0.9 4.3 0.00 0.00 0.00 69 1013.2
20260906153517 92 0 0.0 4.3 0.00 0.00 0.00 67 1013.2
20260906153039 91 196 0.9 4.3 0.00 0.00 0.00 71 1013.3
20260906152525 91 0 0.0 2.6 0.00 0.00 0.00 72 1013.2
20260906152021 90 191 0.9 2.6 0.00 0.00 0.00 71 1013.3
20260906151547 90 325 0.0 2.6 0.00 0.00 0.00 70 1013.3
20260906151019 90 0 0.0 2.6 0.00 0.00 0.00 70 1013.2
20260906150521 90 0 0.0 3.5 0.00 0.00 0.00 71 1013.1
20260906150040 90 0 0.0 3.5 0.00 0.00 0.00 70 1013.1
20260906145520 89 198 0.9 2.6 0.00 0.00 0.00 72 1013.2
20260906145019 89 0 0.0 1.7 0.00 0.00 0.00 73 1013.2
20260906144541 89 0 0.0 1.7 0.00 0.00 0.00 71 1013.1
20260906144021 89 0 0.0 1.7 0.00 0.00 0.00 73 1013.1
20260906143523 88 0 0.0 1.7 0.00 0.00 0.00 74 1012.9
20260906143040 89 0 0.0 2.6 0.00 0.00 0.00 73 1013.1
20260906142520 88 0 0.0 2.6 0.00 0.00 0.00 73 1013.0
20260906142020 88 207 0.0 2.6 0.00 0.00 0.00 74 1013.1
20260906141540 88 190 0.0 2.6 0.00 0.00 0.00 75 1013.0
20260906141018 87 0 0.0 2.6 0.00 0.00 0.00 75 1013.2
20260906140520 87 240 0.9 2.6 0.00 0.00 0.00 75 1013.2
20260906140044 87 0 0.0 2.6 0.00 0.00 0.00 75 1013.5
20260906135517 86 0 0.0 1.7 0.00 0.00 0.00 75 1013.4
20260906135020 86 0 0.0 1.7 0.00 0.00 0.00 75 1013.3
20260906134536 85 0 0.0 1.7 0.00 0.00 0.00 75 1013.3
20260906134023 85 0 0.0 1.7 0.00 0.00 0.00 73 1013.3
20260906133519 84 0 0.0 1.7 0.00 0.00 0.00 69 1013.2
20260906133044 83 0 0.0 1.7 0.00 0.00 0.00 71 1013.3
20260906132520 83 304 0.0 1.7 0.00 0.00 0.00 64 1013.2
20260906132020 82 0 0.0 1.7 0.00 0.00 0.00 56 1013.3
20260906131541 81 0 0.0 1.7 0.00 0.00 0.00 39 1013.3
20260906131018 80 0 0.0 0.9 0.00 0.00 0.00 23 1013.3
20260906130520 79 0 0.0 0.0 0.00 0.00 0.00 11 1013.3
20260906130041 78 0 0.0 0.0 0.00 0.00 0.00 6 1013.4
20260906125516 78 0 0.0 0.0 0.00 0.00 0.00 2 1013.4
20260906125019 78 0 0.0 0.0 0.00 0.00 0.00 100 1013.3
20260906124540 77 0 0.0 0.0 0.00 0.00 0.00 100 1013.3
20260906124021 77 0 0.0 0.0 0.00 0.00 0.00 100 1013.3
20260906123518 77 0 0.0 0.0 0.00 0.00 0.00 100 1013.2
20260906123041 77 0 0.0 0.0 0.00 0.00 0.00 100 1013.2
20260906122520 77 0 0.0 0.0 0.00 0.00 0.00 100 1013.2
20260906122020 77 0 0.0 0.0 0.00 0.00 0.00 100 1013.2
20260906121540 76 0 0.0 0.0 0.00 0.00 0.00 100 1013.1
20260906121017 76 0 0.0 0.0 0.00 0.00 0.00 100 1013.0
20260906120522 76 0 0.0 0.0 0.00 0.00 0.00 100 1012.9
20260906120039 76 0 0.0 0.0 0.00 0.00 0.00 100 1012.8
20260906115521 76 0 0.0 0.0 0.00 0.00 0.00 100 1012.8
20260906115022 76 0 0.0 0.0 0.00 0.00 0.00 100 1012.8
20260906114542 76 0 0.0 0.0 0.00 0.00 0.00 100 1012.9
20260906114100 76 0 0.0 0.0 0.00 0.00 0.00 100 1012.9
20260906113519 76 0 0.0 0.0 0.00 0.00 0.00 1 1013.0
20260906113049 76 0 0.0 0.0 0.00 0.00 0.00 2 1012.9
20260906112520 76 0 0.0 0.0 0.00 0.00 0.00 1 1012.8
20260906112021 76 0 0.0 0.0 0.00 0.00 0.00 2 1012.9
20260906111539 76 0 0.0 0.0 0.00 0.00 0.00 4 1012.9
20260906111018 76 0 0.0 0.0 0.00 0.00 0.00 4 1013.1
20260906110517 77 0 0.0 0.0 0.00 0.00 0.00 4 1012.9
20260906110035 77 0 0.0 0.0 0.00 0.00 0.00 4 1012.9
20260906105521 77 0 0.0 0.0 0.00 0.00 0.00 5 1013.0
20260906105018 77 0 0.0 0.0 0.00 0.00 0.00 5 1013.0
20260906104541 77 0 0.0 0.0 0.00 0.00 0.00 6 1012.9
20260906104020 77 0 0.0 0.0 0.00 0.00 0.00 8 1012.9
20260906103517 77 0 0.0 0.0 0.00 0.00 0.00 9 1012.9
20260906103050 77 0 0.0 0.0 0.00 0.00 0.00 9 1013.0
20260906102522 77 0 0.0 0.0 0.00 0.00 0.00 10 1013.1
20260906102020 77 0 0.0 0.0 0.00 0.00 0.00 9 1013.2
20260906101546 77 0 0.0 0.9 0.00 0.00 0.00 9 1013.1
20260906101021 77 0 0.0 0.9 0.00 0.00 0.00 11 1013.0
20260906100518 77 0 0.0 0.9 0.00 0.00 0.00 10 1012.9
20260906100037 77 0 0.0 0.0 0.00 0.00 0.00 9 1013.2
20260906095521 77 0 0.0 0.0 0.00 0.00 0.00 8 1012.8
20260906095020 77 0 0.0 0.0 0.00 0.00 0.00 9 1012.8
20260906094539 77 0 0.0 0.0 0.00 0.00 0.00 9 1012.7
20260906094020 77 0 0.0 0.0 0.00 0.00 0.00 9 1012.6
20260906093520 77 0 0.0 0.0 0.00 0.00 0.00 14 1012.3
20260906093049 77 0 0.0 0.0 0.00 0.00 0.00 14 1012.4
20260906092521 77 0 0.0 0.0 0.00 0.00 0.00 14 1012.4
20260906092022 77 0 0.0 0.0 0.00 0.00 0.00 15 1012.4
20260906091541 77 0 0.0 0.0 0.00 0.00 0.00 17 1012.5
20260906091019 78 0 0.0 0.0 0.00 0.00 0.00 17 1012.4
20260906090517 78 0 0.0 0.0 0.00 0.00 0.00 19 1012.4
20260906090040 78 0 0.0 0.0 0.00 0.00 0.00 19 1012.6
20260906085522 78 0 0.0 0.0 0.00 0.00 0.00 22 1012.4
20260906085020 78 0 0.0 0.0 0.00 0.00 0.00 23 1012.4
20260906084538 78 0 0.0 0.0 0.00 0.00 0.00 22 1012.4
20260906084020 78 0 0.0 0.0 0.00 0.00 0.00 23 1012.4
20260906083520 78 0 0.0 0.0 0.00 0.00 0.00 22 1012.2
20260906083041 78 0 0.0 0.0 0.00 0.00 0.00 24 1012.1
20260906082522 78 0 0.0 0.0 0.00 0.00 0.00 25 1012.3
20260906082021 78 0 0.0 0.0 0.00 0.00 0.00 25 1012.1
20260906081545 78 0 0.0 0.9 0.00 0.00 0.00 29 1012.0
20260906081020 78 0 0.0 0.9 0.00 0.00 0.00 28 1012.2
20260906080520 78 0 0.0 0.9 0.00 0.00 0.00 29 1012.2
20260906080042 79 0 0.0 0.0 0.00 0.00 0.00 30 1012.3
20260906075518 79 0 0.0 0.0 0.00 0.00 0.00 33 1012.3
20260906075020 79 0 0.0 0.0 0.00 0.00 0.00 35 1012.3
20260906074541 79 0 0.0 0.0 0.00 0.00 0.00 33 1012.3
20260906074020 79 0 0.0 0.9 0.00 0.00 0.00 32 1012.5
20260906073523 79 0 0.0 0.9 0.00 0.00 0.00 33 1012.4
20260906073042 79 0 0.0 0.9 0.00 0.00 0.00 34 1012.4
20260906072520 79 0 0.0 0.0 0.00 0.00 0.00 33 1012.7
20260906072022 79 0 0.0 2.6 0.00 0.00 0.00 32 1012.7
20260906071540 79 0 0.0 2.6 0.00 0.00 0.00 30 1012.7
20260906071020 79 0 0.0 1.7 0.00 0.00 0.00 29 1012.8
20260906070522 79 0 0.0 0.9 0.00 0.00 0.00 30 1012.5
20260906070040 79 0 0.0 0.0 0.00 0.00 0.00 34 1012.3
20260906065523 79 0 0.0 0.0 0.00 0.00 0.00 36 1012.3
20260906065022 79 0 0.0 0.0 0.00 0.00 0.00 39 1012.1
20260906064545 79 0 0.0 0.0 0.00 0.00 0.00 37 1012.3
20260906064020 79 0 0.0 0.0 0.00 0.00 0.00 36 1012.2
20260906063522 79 0 0.0 0.0 0.00 0.00 0.00 39 1012.4
20260906063041 79 0 0.0 0.0 0.00 0.00 0.00 41 1012.2
20260906062518 79 0 0.0 0.0 0.00 0.00 0.00 44 1012.1
20260906062017 79 0 0.0 0.0 0.00 0.00 0.00 45 1012.1
20260906061541 79 0 0.0 0.0 0.00 0.00 0.00 44 1012.3
20260906061023 79 0 0.0 0.0 0.00 0.00 0.00 48 1012.3
20260906060525 79 0 0.0 0.0 0.00 0.00 0.00 48 1012.4
20260906060040 79 0 0.0 0.0 0.00 0.00 0.00 48 1012.3
20260906055524 80 0 0.0 0.0 0.00 0.00 0.00 51 1012.4
20260906055025 80 0 0.0 0.0 0.00 0.00 0.00 51 1012.4
20260906054544 80 0 0.0 0.0 0.00 0.00 0.00 50 1012.6
20260906054022 80 0 0.0 0.0 0.00 0.00 0.00 52 1012.7
20260906053525 80 0 0.0 0.0 0.00 0.00 0.00 55 1012.5
20260906053041 80 0 0.0 0.0 0.00 0.00 0.00 55 1012.7
20260906052524 80 0 0.0 0.0 0.00 0.00 0.00 55 1012.5
20260906052024 80 0 0.0 0.0 0.00 0.00 0.00 56 1012.7
20260906051546 80 0 0.0 0.0 0.00 0.00 0.00 57 1013.0
20260906051020 80 0 0.0 0.0 0.00 0.00 0.00 58 1012.9
20260906050524 80 0 0.0 0.0 0.00 0.00 0.00 60 1012.9
20260906050046 80 0 0.0 0.0 0.00 0.00 0.00 62 1012.8
20260906045523 80 0 0.0 0.0 0.00 0.00 0.00 62 1012.8
20260906045022 80 0 0.0 0.0 0.00 0.00 0.00 63 1012.8
20260906044544 81 0 0.0 0.0 0.00 0.00 0.00 63 1012.8
20260906044021 81 0 0.0 0.0 0.00 0.00 0.00 64 1012.8
20260906043518 81 0 0.0 0.0 0.00 0.00 0.00 64 1012.9
20260906043039 81 0 0.0 0.0 0.00 0.00 0.00 64 1012.9
20260906042521 81 0 0.0 0.0 0.00 0.00 0.00 65 1012.9
20260906042021 81 0 0.0 0.0 0.00 0.00 0.00 66 1012.8
20260906041541 81 0 0.0 0.0 0.00 0.00 0.00 66 1012.8
20260906041022 81 0 0.0 0.0 0.00 0.00 0.00 66 1012.9
20260906040519 81 0 0.0 0.0 0.00 0.00 0.00 67 1013.0
20260906040043 81 0 0.0 0.0 0.00 0.00 0.00 66 1013.0
20260906035521 81 0 0.0 0.0 0.00 0.00 0.00 66 1013.1
20260906035019 82 0 0.0 0.0 0.00 0.00 0.00 68 1013.0
20260906034542 82 0 0.0 0.9 0.00 0.00 0.00 68 1013.1
20260906034019 82 0 0.0 0.9 0.00 0.00 0.00 68 1013.0
20260906033521 82 0 0.0 0.9 0.00 0.00 0.00 68 1012.9
20260906033038 82 0 0.0 0.9 0.00 0.00 0.00 69 1013.2
20260906032520 82 0 0.0 0.0 0.00 0.00 0.00 69 1013.2
20260906032024 82 0 0.0 1.7 0.00 0.00 0.00 70 1013.3
20260906031544 82 0 0.0 1.7 0.00 0.00 0.00 69 1013.4
20260906031025 82 0 0.0 1.7 0.00 0.00 0.00 70 1013.3
20260906030522 82 0 0.0 0.9 0.00 0.00 0.00 70 1013.3
20260906030045 82 0 0.0 0.0 0.00 0.00 0.00 71 1013.2
20260906025520 82 0 0.0 0.9 0.00 0.00 0.00 71 1013.2
20260906025020 83 0 0.0 0.9 0.00 0.00 0.00 71 1013.1
20260906024541 83 0 0.0 0.9 0.00 0.00 0.00 71 1013.1
20260906024018 83 0 0.0 0.9 0.00 0.00 0.00 72 1013.1
20260906023525 83 0 0.0 0.9 0.00 0.00 0.00 73 1013.1
20260906023048 83 0 0.0 0.0 0.00 0.00 0.00 73 1013.0
20260906022521 83 0 0.0 0.0 0.00 0.00 0.00 74 1013.1
20260906022018 83 0 0.0 0.0 0.00 0.00 0.00 73 1013.0
20260906021545 83 0 0.0 0.9 0.00 0.00 0.00 74 1012.7
20260906021018 83 0 0.0 0.9 0.00 0.00 0.00 74 1012.7
20260906020522 83 0 0.0 0.9 0.00 0.00 0.00 74 1012.5
20260906020041 83 0 0.0 0.0 0.00 0.00 0.00 74 1012.4
20260906015517 83 0 0.0 0.0 0.00 0.00 0.00 75 1012.3
20260906015018 84 0 0.0 0.0 0.00 0.00 0.00 75 1012.3
20260906014548 84 0 0.0 0.0 0.00 0.00 0.00 75 1012.1
20260906014021 84 0 0.0 0.0 0.00 0.00 0.00 75 1012.0
20260906013519 84 0 0.0 0.0 0.00 0.00 0.00 75 1011.9
20260906013046 84 0 0.0 0.9 0.00 0.00 0.00 75 1011.7
20260906012521 84 0 0.0 1.7 0.00 0.00 0.00 75 1011.7
20260906012021 84 0 0.0 1.7 0.00 0.00 0.00 75 1011.6
20260906011540 85 0 0.0 1.7 0.00 0.00 0.00 75 1011.6
20260906011018 85 0 0.0 1.7 0.00 0.00 0.00 75 1011.5
20260906010518 85 0 0.0 1.7 0.00 0.00 0.00 75 1011.6
20260906010043 85 0 0.0 1.7 0.00 0.00 0.00 75 1011.8
20260906005520 85 305 0.0 2.6 0.00 0.00 0.00 75 1012.0
20260906005020 86 0 0.0 3.5 0.00 0.00 0.00 75 1012.0
20260906004540 86 232 0.0 3.5 0.00 0.00 0.00 74 1012.0
20260906004027 86 232 0.0 3.5 0.00 0.00 0.00 74 1011.9
20260906003521 86 0 0.0 0.9 0.00 0.00 0.00 74 1011.9
20260906003042 87 0 0.0 2.6 0.00 0.00 0.00 74 1011.7
20260906002518 87 0 0.0 2.6 0.00 0.00 0.00 74 1011.7
20260906002018 87 0 0.0 2.6 0.00 0.00 0.00 74 1011.7
20260906001540 87 65 0.0 2.6 0.00 0.00 0.00 73 1011.6
20260906001020 88 0 0.0 2.6 0.00 0.00 0.00 73 1011.6
20260906000520 88 352 0.0 3.5 0.00 0.00 0.00 73 1011.7
20260906000042 88 218 0.0 3.5 0.00 0.00 0.00 72 1011.8
20260905235517 89 0 0.0 3.5 0.00 0.00 0.00 72 1011.8
20260905235023 89 0 0.0 2.6 0.00 0.00 0.00 71 1011.6
20260905234545 89 261 0.0 3.5 0.00 0.00 0.00 71 1011.6
20260905234021 89 0 0.0 3.5 0.00 0.00 0.00 70 1011.7
20260905233522 90 352 0.9 3.5 0.00 0.00 0.00 70 1011.5
20260905233041 90 225 0.0 3.5 0.00 0.00 0.00 70 1011.5
20260905232520 90 100 0.0 2.6 0.00 0.00 0.00 69 1011.5
20260905232018 90 0 0.0 4.3 0.00 0.00 0.00 69 1011.6
20260905231541 91 200 0.0 4.3 0.00 0.00 0.00 69 1011.6
20260905231020 91 0 0.9 4.3 0.00 0.00 0.00 69 1011.6
20260905230519 91 234 0.0 3.5 0.00 0.00 0.00 69 1011.6
20260905230042 91 0 0.9 4.3 0.00 0.00 0.00 68 1011.7
20260905225523 91 65 0.9 4.3 0.00 0.00 0.00 67 1011.8
20260905225020 91 0 0.0 6.1 0.00 0.00 0.00 68 1011.7
20260905224538 91 0 0.0 6.1 0.00 0.00 0.00 68 1011.6
20260905224018 91 0 0.9 6.1 0.00 0.00 0.00 68 1011.6
20260905223519 91 219 0.9 5.2 0.00 0.00 0.00 68 1011.4
20260905223041 92 179 0.9 5.2 0.00 0.00 0.00 68 1011.5
20260905222521 92 184 0.9 6.1 0.00 0.00 0.00 67 1011.5
20260905222019 92 128 0.9 6.1 0.00 0.00 0.00 68 1011.6
20260905221544 92 62 0.9 5.2 0.00 0.00 0.00 68 1011.6
20260905221022 92 215 0.9 5.2 0.00 0.00 0.00 68 1011.5
20260905220523 91 0 0.9 3.5 0.00 0.00 0.00 68 1011.7
20260905220041 91 84 0.0 5.2 0.00 0.00 0.00 69 1011.6
20260905215521 92 123 0.9 5.2 0.00 0.00 0.00 68 1011.6
20260905215026 92 226 0.9 6.1 0.00 0.00 0.00 68 1011.7
20260905214539 92 0 0.0 6.1 0.00 0.00 0.00 67 1011.7
20260905214023 92 237 0.9 4.3 0.00 0.00 0.00 68 1011.6
20260905213519 92 0 0.0 5.2 0.00 0.00 0.00 68 1011.7
20260905213041 92 0 0.9 5.2 0.00 0.00 0.00 68 1011.7
20260905212522 92 111 0.0 4.3 0.00 0.00 0.00 68 1011.9
20260905212022 92 0 0.0 5.2 0.00 0.00 0.00 67 1011.8
20260905211542 92 190 0.9 5.2 0.00 0.00 0.00 67 1011.9
20260905211020 92 0 0.9 4.3 0.00 0.00 0.00 67 1011.8
20260905210521 92 266 0.9 4.3 0.00 0.00 0.00 67 1012.0
20260905210040 93 271 0.0 6.1 0.00 0.00 0.00 67 1011.8
20260905205520 93 194 0.9 6.1 0.00 0.00 0.00 66 1011.9
20260905205020 93 162 1.7 6.1 0.00 0.00 0.00 67 1011.8
20260905204540 93 182 0.9 4.3 0.00 0.00 0.00 67 1011.9
20260905204018 94 188 0.9 4.3 0.00 0.00 0.00 65 1011.9
20260905203521 94 0 0.9 3.5 0.00 0.00 0.00 66 1011.9
20260905203042 94 0 0.9 6.1 0.00 0.00 0.00 66 1012.0
20260905202519 95 153 0.9 6.1 0.00 0.00 0.00 65 1012.0
20260905202018 95 175 1.7 6.1 0.00 0.00 0.00 65 1012.1
20260905201541 95 0 1.7 6.1 0.00 0.00 0.00 64 1012.1
20260905201020 95 334 0.9 3.5 0.00 0.00 0.00 65 1012.1
20260905200522 95 0 0.9 4.3 0.00 0.00 0.00 65 1012.1
20260905200048 95 0 0.9 5.2 0.00 0.00 0.00 67 1012.1
20260905195520 95 122 0.9 7.8 0.00 0.00 0.00 67 1012.1
20260905195018 94 191 1.7 7.8 0.00 0.00 0.00 67 1012.2
20260905194545 94 207 1.7 7.8 0.00 0.00 0.00 68 1012.2
20260905194025 94 234 0.9 3.5 0.00 0.00 0.00 68 1012.1
20260905193531 94 0 0.0 6.1 0.00 0.00 0.00 65 1012.3
20260905193045 95 251 0.9 6.1 0.00 0.00 0.00 65 1012.4
20260905192519 95 263 1.7 6.1 0.00 0.00 0.00 66 1012.4
20260905192018 95 203 1.7 4.3 0.00 0.00 0.00 62 1012.5
20260905191543 94 200 1.7 4.3 0.00 0.00 0.00 63 1012.7
20260905191023 93 136 0.0 4.3 0.00 0.00 0.00 65 1012.7
20260905190520 93 0 0.9 4.3 0.00 0.00 0.00 63 1012.7
20260905190051 93 223 0.9 4.3 0.00 0.00 0.00 66 1012.9
20260905185517 92 0 0.0 4.3 0.00 0.00 0.00 67 1012.8
20260905185021 92 0 0.0 4.3 0.00 0.00 0.00 68 1012.9
20260905184546 92 200 0.9 5.2 0.00 0.00 0.00 67 1012.9
20260905184021 92 274 0.9 5.2 0.00 0.00 0.00 68 1012.9
20260905183525 92 0 0.0 3.5 0.00 0.00 0.00 69 1012.9
20260905183044 92 235 0.9 3.5 0.00 0.00 0.00 69 1013.0
20260905182520 92 71 0.0 3.5 0.00 0.00 0.00 68 1013.1
20260905182021 93 65 0.0 3.5 0.00 0.00 0.00 66 1013.2
20260905181544 93 170 0.9 3.5 0.00 0.00 0.00 65 1013.5
20260905181020 93 257 0.0 2.6 0.00 0.00 0.00 64 1013.5
20260905180520 94 0 0.0 3.5 0.00 0.00 0.00 62 1013.6
20260905180038 94 0 0.0 3.5 0.00 0.00 0.00 61 1013.7
20260905175522 95 0 0.0 3.5 0.00 0.00 0.00 61 1013.5
20260905175023 95 207 0.9 3.5 0.00 0.00 0.00 57 1013.6